DW1779 Weather Reports


Display with metric or nautical units.
time (UTC)temp
F
wind
direction
speed
MPH
gust
MPH
rain 1hr
in
rain 24hr
in
rain mn
in
humidity
%
barometer
mb
20260901145557 89 217 1.0 8.0 0.00 0.00 0.00 62 1019.9
20260901145052 89 257 1.0 10.0 0.00 0.00 0.00 62 1019.9
20260901144552 88 320 3.0 10.0 0.00 0.00 0.00 63 1019.8
20260901144049 88 180 1.0 10.0 0.00 0.00 0.00 63 1019.9
20260901143547 88 282 2.0 10.0 0.00 0.00 0.00 64 1019.9
20260901143106 87 209 1.0 7.0 0.00 0.00 0.00 65 1020.0
20260901142544 87 205 1.0 7.0 0.00 0.00 0.00 66 1020.0
20260901142042 86 264 2.0 7.0 0.00 0.00 0.00 66 1019.9
20260901141541 86 176 4.0 9.0 0.00 0.00 0.00 67 1020.1
20260901141040 85 192 4.0 9.0 0.00 0.00 0.00 67 1020.0
20260901140508 85 194 2.0 9.0 0.00 0.00 0.00 68 1020.0
20260901140006 84 285 2.0 9.0 0.00 0.00 0.00 71 1020.1
20260901135505 83 182 1.0 6.0 0.00 0.00 0.00 73 1020.2
20260901135003 83 167 1.0 10.0 0.00 0.00 0.00 73 1020.3
20260901134502 82 198 3.0 10.0 0.00 0.00 0.00 73 1020.3
20260901134100 81 169 3.0 8.0 0.00 0.00 0.00 77 1020.3
20260901133559 79 194 3.0 8.0 0.00 0.00 0.00 79 1020.2
20260901133101 79 198 1.0 6.0 0.00 0.00 0.00 81 1020.3
20260901132602 76 228 1.0 5.0 0.00 0.00 0.00 86 1020.3
20260901132057 74 257 0.0 4.0 0.00 0.00 0.00 90 1020.2
20260901131558 73 235 0.0 4.0 0.00 0.00 0.00 91 1020.3
20260901131056 72 244 0.0 4.0 0.00 0.00 0.00 92 1020.3
20260901130656 72 166 1.0 4.0 0.00 0.00 0.00 92 1020.3
20260901130100 71 200 0.0 3.0 0.00 0.00 0.00 93 1020.3
20260901125558 70 170 0.0 0.0 0.00 0.00 0.00 93 1020.1
20260901125058 70 164 0.0 2.0 0.00 0.00 0.00 93 1020.3
20260901124601 69 151 0.0 2.0 0.00 0.00 0.00 94 1020.2
20260901124056 69 149 0.0 0.0 0.00 0.00 0.00 94 1020.2
20260901123600 68 149 0.0 1.0 0.00 0.00 0.00 94 1020.1
20260901123056 68 149 0.0 2.0 0.00 0.00 0.00 94 1019.9
20260901122555 68 144 0.0 2.0 0.00 0.00 0.00 94 1020.0
20260901122054 68 161 0.0 1.0 0.00 0.00 0.00 94 1019.9
20260901121602 68 117 0.0 1.0 0.00 0.00 0.00 94 1019.9
20260901121053 67 117 0.0 1.0 0.00 0.00 0.00 94 1019.8
20260901120652 67 117 0.0 1.0 0.00 0.00 0.00 94 1019.7
20260901120052 67 117 0.0 1.0 0.00 0.00 0.00 94 1019.8
20260901115551 67 117 0.0 1.0 0.00 0.00 0.00 94 1019.8
20260901115051 67 117 0.0 1.0 0.00 0.00 0.00 94 1019.7
20260901114551 67 117 0.0 0.0 0.00 0.00 0.00 94 1019.7
20260901114049 67 112 0.0 0.0 0.00 0.00 0.00 94 1019.6
20260901113549 67 112 0.0 0.0 0.00 0.00 0.00 94 1019.4
20260901113049 67 112 0.0 0.0 0.00 0.00 0.00 94 1019.4
20260901112548 68 112 0.0 0.0 0.00 0.00 0.00 94 1019.4
20260901112048 68 112 0.0 0.0 0.00 0.00 0.00 94 1019.3
20260901111547 68 112 0.0 0.0 0.00 0.00 0.00 94 1019.4
20260901111046 68 112 0.0 0.0 0.00 0.00 0.00 94 1019.4
20260901110646 68 112 0.0 0.0 0.00 0.00 0.00 94 1019.4
20260901110051 68 112 0.0 0.0 0.00 0.00 0.00 93 1019.3
20260901105553 68 112 0.0 0.0 0.00 0.00 0.00 93 1019.2
20260901105053 68 112 0.0 0.0 0.00 0.00 0.00 93 1019.2
20260901104550 68 112 0.0 1.0 0.00 0.00 0.00 93 1019.1
20260901104048 68 112 0.0 1.0 0.00 0.00 0.00 93 1019.2
20260901103548 68 112 0.0 2.0 0.00 0.00 0.00 93 1019.1
20260901103047 68 112 0.0 2.0 0.00 0.00 0.00 93 1019.0
20260901102546 68 148 0.0 1.0 0.00 0.00 0.00 92 1019.0
20260901102046 69 147 0.0 1.0 0.00 0.00 0.00 92 1019.0
20260901101600 69 148 0.0 2.0 0.00 0.00 0.00 92 1018.9
20260901101043 69 148 0.0 2.0 0.00 0.00 0.00 92 1018.9
20260901100643 69 133 0.0 1.0 0.00 0.00 0.00 92 1018.9
20260901100100 69 127 0.0 1.0 0.00 0.00 0.00 92 1018.8
20260901095558 69 127 0.0 1.0 0.00 0.00 0.00 92 1018.8
20260901095059 69 127 0.0 1.0 0.00 0.00 0.00 92 1018.7
20260901094558 69 127 0.0 2.0 0.00 0.00 0.00 92 1018.8
20260901094058 69 127 0.0 2.0 0.00 0.00 0.00 92 1018.8
20260901093556 69 144 0.0 2.0 0.00 0.00 0.00 92 1018.6
20260901093106 69 132 0.0 2.0 0.00 0.00 0.00 91 1018.7
20260901092555 69 132 0.0 2.0 0.00 0.00 0.00 91 1018.6
20260901092056 69 136 0.0 1.0 0.00 0.00 0.00 92 1018.5
20260901091558 69 116 0.0 1.0 0.00 0.00 0.00 91 1018.5
20260901091055 70 116 0.0 2.0 0.00 0.00 0.00 91 1018.5
20260901090655 70 117 0.0 2.0 0.00 0.00 0.00 91 1018.5
20260901090058 70 120 0.0 1.0 0.00 0.00 0.00 91 1018.4
20260901085557 70 144 0.0 1.0 0.00 0.00 0.00 91 1018.4
20260901085100 70 160 0.0 1.0 0.00 0.00 0.00 91 1018.4
20260901084557 70 169 0.0 1.0 0.00 0.00 0.00 91 1018.4
20260901084056 70 157 0.0 1.0 0.00 0.00 0.00 91 1018.3
20260901083556 70 157 0.0 1.0 0.00 0.00 0.00 91 1018.4
20260901083056 70 140 0.0 1.0 0.00 0.00 0.00 91 1018.4
20260901082555 70 140 0.0 1.0 0.00 0.00 0.00 91 1018.4
20260901082056 70 132 0.0 1.0 0.00 0.00 0.00 91 1018.4
20260901081600 70 142 0.0 1.0 0.00 0.00 0.00 91 1018.3
20260901081054 70 137 0.0 1.0 0.00 0.00 0.00 91 1018.3
20260901080654 70 133 0.0 1.0 0.00 0.00 0.00 91 1018.2
20260901080145 70 127 0.0 1.0 0.00 0.00 0.00 91 1018.0
20260901075556 70 142 0.0 2.0 0.00 0.00 0.00 91 1018.1
20260901075054 70 154 0.0 2.0 0.00 0.00 0.00 90 1018.1
20260901074553 70 128 0.0 2.0 0.00 0.00 0.00 90 1018.2
20260901074054 70 139 0.0 2.0 0.00 0.00 0.00 90 1018.1
20260901073553 70 142 0.0 2.0 0.00 0.00 0.00 90 1018.2
20260901073053 71 138 0.0 2.0 0.00 0.00 0.00 89 1018.1
20260901072552 71 123 0.0 2.0 0.00 0.00 0.00 89 1018.1
20260901072056 71 153 0.0 1.0 0.00 0.00 0.00 89 1018.1
20260901071551 71 159 0.0 1.0 0.00 0.00 0.00 89 1018.1
20260901071049 71 182 0.0 1.0 0.00 0.00 0.00 89 1018.1
20260901070651 71 182 0.0 1.0 0.00 0.00 0.00 88 1018.0
20260901070114 71 132 0.0 1.0 0.00 0.00 0.00 88 1018.1
20260901065555 71 132 0.0 2.0 0.00 0.00 0.00 89 1018.0
20260901065054 71 132 0.0 2.0 0.00 0.00 0.00 89 1018.0
20260901064605 72 138 0.0 1.0 0.00 0.00 0.00 89 1018.1
20260901064052 72 209 0.0 0.0 0.00 0.00 0.00 88 1018.2
20260901063551 72 209 0.0 0.0 0.00 0.00 0.00 88 1018.2
20260901063059 72 209 0.0 0.0 0.00 0.00 0.00 87 1018.2
20260901062550 72 209 0.0 1.0 0.00 0.00 0.00 87 1018.2
20260901062049 73 209 0.0 2.0 0.00 0.00 0.00 87 1018.2
20260901061601 73 209 0.0 3.0 0.00 0.00 0.00 87 1018.2
20260901061048 73 148 0.0 3.0 0.00 0.00 0.00 86 1018.1
20260901060647 73 132 1.0 3.0 0.00 0.00 0.00 86 1018.1
20260901060051 73 111 0.0 4.0 0.00 0.00 0.00 86 1018.1
20260901055550 74 176 1.0 4.0 0.00 0.00 0.00 85 1018.1
20260901055049 74 123 0.0 3.0 0.00 0.00 0.00 84 1018.1
20260901054551 75 188 0.0 3.0 0.00 0.00 0.00 83 1018.1
20260901054049 75 180 0.0 4.0 0.00 0.00 0.00 83 1018.1
20260901053548 75 121 1.0 5.0 0.00 0.00 0.00 82 1018.1
20260901053049 75 231 1.0 5.0 0.00 0.00 0.00 82 1018.1
20260901052546 75 147 2.0 6.0 0.00 0.00 0.00 82 1018.1
20260901052044 75 117 2.0 7.0 0.00 0.00 0.00 82 1018.1
20260901051543 76 165 1.0 9.0 0.00 0.00 0.00 80 1018.0
20260901051043 76 173 2.0 9.0 0.00 0.00 0.00 80 1018.0
20260901050645 76 142 2.0 5.0 0.00 0.00 0.00 80 1017.9
20260901050041 76 125 2.0 6.0 0.00 0.00 0.00 81 1017.9
20260901045541 77 155 1.0 7.0 0.00 0.00 0.00 79 1018.1
20260901045040 77 197 1.0 7.0 0.00 0.00 0.00 79 1018.1
20260901044557 77 117 2.0 7.0 0.00 0.00 0.00 79 1018.1
20260901044040 77 169 1.0 7.0 0.00 0.00 0.00 78 1018.1
20260901043540 78 184 2.0 7.0 0.00 0.00 0.00 77 1018.1
20260901043041 78 149 3.0 7.0 0.00 0.00 0.00 76 1018.0
20260901042539 78 156 2.0 7.0 0.00 0.00 0.00 76 1018.1
20260901042040 78 144 2.0 7.0 0.00 0.00 0.00 77 1018.0
20260901041539 77 157 2.0 7.0 0.00 0.00 0.00 78 1018.1
20260901041039 78 146 1.0 7.0 0.00 0.00 0.00 77 1018.0
20260901040639 78 173 2.0 7.0 0.00 0.00 0.00 77 1018.0
20260901040104 78 184 1.0 5.0 0.00 0.00 0.00 77 1017.9
20260901035602 78 146 2.0 6.0 0.00 0.00 0.00 77 1018.0
20260901035102 77 173 2.0 6.0 0.00 0.00 0.00 78 1018.0
20260901034558 77 141 1.0 3.0 0.00 0.00 0.00 79 1018.1
20260901034058 77 161 0.0 3.0 0.00 0.00 0.00 79 1018.1
20260901033558 77 170 1.0 4.0 0.00 0.00 0.00 79 1018.0
20260901033058 77 153 1.0 7.0 0.00 0.00 0.00 79 1018.0
20260901032600 77 171 2.0 7.0 0.00 0.00 0.00 80 1018.0
20260901032058 76 168 1.0 5.0 0.00 0.00 0.00 81 1018.0
20260901031559 75 196 1.0 7.0 0.00 0.00 0.00 82 1017.9
20260901031056 75 200 2.0 7.0 0.00 0.00 0.00 84 1018.0
20260901030656 74 160 1.0 5.0 0.00 0.00 0.00 85 1017.9
20260901030054 74 138 1.0 5.0 0.00 0.00 0.00 86 1017.9
20260901025554 73 202 1.0 5.0 0.00 0.00 0.00 86 1017.9
20260901025054 73 193 1.0 6.0 0.00 0.00 0.00 86 1017.9
20260901024601 73 161 1.0 3.0 0.00 0.00 0.00 86 1017.9
20260901024053 73 165 0.0 2.0 0.00 0.00 0.00 85 1017.8
20260901023553 74 175 0.0 2.0 0.00 0.00 0.00 85 1017.8
20260901023054 74 167 0.0 1.0 0.00 0.00 0.00 83 1017.8
20260901022553 74 159 0.0 1.0 0.00 0.00 0.00 82 1017.8
20260901022053 75 159 0.0 0.0 0.00 0.00 0.00 81 1017.7
20260901021608 75 159 0.0 0.0 0.00 0.00 0.00 80 1017.7
20260901021055 75 159 0.0 0.0 0.00 0.00 0.00 79 1017.6
20260901020653 76 159 0.0 1.0 0.00 0.00 0.00 79 1017.5
20260901020052 76 159 0.0 1.0 0.00 0.00 0.00 79 1017.5
20260901015552 76 159 0.0 1.0 0.00 0.00 0.00 79 1017.4
20260901015051 76 159 0.0 0.0 0.00 0.00 0.00 79 1017.4
20260901014552 76 159 0.0 2.0 0.00 0.00 0.00 78 1017.3
20260901014051 76 146 0.0 2.0 0.00 0.00 0.00 76 1017.3
20260901013551 77 173 0.0 1.0 0.00 0.00 0.00 76 1017.1
20260901013106 77 169 0.0 2.0 0.00 0.00 0.00 75 1017.1
20260901012553 78 159 0.0 1.0 0.00 0.00 0.00 73 1017.1
20260901012050 78 179 0.0 2.0 0.00 0.00 0.00 71 1017.0
20260901011550 79 179 0.0 2.0 0.00 0.00 0.00 71 1017.0
20260901011050 79 184 0.0 2.0 0.00 0.00 0.00 70 1016.8
20260901010651 80 184 0.0 2.0 0.00 0.00 0.00 68 1016.9
20260901010049 80 153 0.0 2.0 0.00 0.00 0.00 67 1016.9
20260901005549 81 165 0.0 2.0 0.00 0.00 0.00 66 1016.8
20260901005048 82 147 0.0 1.0 0.00 0.00 0.00 64 1016.7
20260901004549 82 144 0.0 1.0 0.00 0.00 0.00 63 1016.7
20260901004049 83 143 0.0 2.0 0.00 0.00 0.00 62 1016.7
20260901003548 84 140 0.0 3.0 0.00 0.00 0.00 62 1016.6
20260901003049 85 176 0.0 5.0 0.00 0.00 0.00 59 1016.6
20260901002548 86 157 1.0 5.0 0.00 0.00 0.00 60 1016.5
20260901002048 86 155 2.0 5.0 0.00 0.00 0.00 57 1016.4
20260901001548 86 169 2.0 6.0 0.00 0.00 0.00 57 1016.5
20260901001051 87 155 3.0 6.0 0.00 0.00 0.00 56 1016.4
20260901000648 88 230 2.0 10.0 0.00 0.00 0.00 53 1016.4
20260901000049 90 160 2.0 10.0 0.00 0.00 0.00 53 1016.4
20260831235546 90 184 2.0 6.0 0.00 0.00 0.00 50 1016.3
20260831235048 90 162 3.0 8.0 0.00 0.00 0.00 48 1016.4
20260831234545 91 191 3.0 9.0 0.00 0.00 0.00 48 1016.3
20260831234045 91 200 4.0 11.0 0.00 0.00 0.00 47 1016.3
20260831233546 91 189 3.0 12.0 0.00 0.00 0.00 48 1016.3
20260831233045 91 163 4.0 9.0 0.00 0.00 0.00 47 1016.3
20260831232547 92 216 2.0 10.0 0.00 0.00 0.00 47 1016.3
20260831232045 92 223 3.0 10.0 0.00 0.00 0.00 47 1016.3
20260831231600 92 177 3.0 9.0 0.00 0.00 0.00 46 1016.3
20260831231044 93 150 5.0 10.0 0.00 0.00 0.00 45 1016.3
20260831230644 93 109 4.0 10.0 0.00 0.00 0.00 45 1016.3
20260831230101 93 140 4.0 9.0 0.00 0.00 0.00 46 1016.4
20260831225557 93 207 4.0 9.0 0.00 0.00 0.00 47 1016.3
20260831225057 93 150 4.0 10.0 0.00 0.00 0.00 45 1016.3
20260831224629 94 93 3.0 9.0 0.00 0.00 0.00 43 1016.3
20260831224059 94 148 3.0 9.0 0.00 0.00 0.00 46 1016.2
20260831223557 94 155 4.0 11.0 0.00 0.00 0.00 43 1016.3
20260831223057 94 98 5.0 11.0 0.00 0.00 0.00 42 1016.3
20260831222556 94 228 1.0 16.0 0.00 0.00 0.00 43 1016.2
20260831222058 94 123 5.0 17.0 0.00 0.00 0.00 44 1016.2
20260831221605 94 163 5.0 10.0 0.00 0.00 0.00 43 1016.2
20260831221055 95 190 3.0 9.0 0.00 0.00 0.00 45 1016.2
20260831220657 95 179 4.0 9.0 0.00 0.00 0.00 43 1016.1
20260831220059 96 105 3.0 8.0 0.00 0.00 0.00 43 1016.2
20260831215559 96 77 2.0 12.0 0.00 0.00 0.00 44 1016.2
20260831215058 95 182 4.0 12.0 0.00 0.00 0.00 42 1016.1
20260831214603 96 151 5.0 10.0 0.00 0.00 0.00 43 1016.2
20260831214101 95 135 1.0 7.0 0.00 0.00 0.00 47 1016.4
20260831213559 95 153 3.0 10.0 0.00 0.00 0.00 44 1016.4
20260831213058 92 132 3.0 10.0 0.00 0.00 0.00 50 1016.3
20260831212557 93 215 1.0 6.0 0.00 0.00 0.00 52 1016.5
20260831212100 95 207 2.0 6.0 0.00 0.00 0.00 47 1016.5
20260831211607 95 100 2.0 6.0 0.00 0.00 0.00 46 1016.5
20260831211056 95 258 2.0 6.0 0.00 0.00 0.00 50 1016.5
20260831210656 96 192 1.0 8.0 0.00 0.00 0.00 41 1016.5
20260831210059 96 189 4.0 8.0 0.00 0.00 0.00 42 1016.6
20260831205551 93 145 1.0 7.0 0.00 0.00 0.00 51 1016.8
20260831205052 91 137 2.0 7.0 0.00 0.00 0.00 54 1016.6
20260831204551 92 136 1.0 7.0 0.00 0.00 0.00 51 1016.8
20260831204051 92 158 3.0 7.0 0.00 0.00 0.00 53 1016.8
20260831203550 92 134 1.0 5.0 0.00 0.00 0.00 53 1016.9
20260831203051 94 155 1.0 8.0 0.00 0.00 0.00 51 1016.9
20260831202550 96 141 2.0 8.0 0.00 0.00 0.00 40 1016.8
20260831202050 97 114 3.0 8.0 0.00 0.00 0.00 41 1016.9
20260831201551 98 140 3.0 9.0 0.00 0.00 0.00 44 1016.9
20260831201050 98 254 4.0 9.0 0.00 0.00 0.00 40 1017.0
20260831200652 98 186 2.0 8.0 0.00 0.00 0.00 42 1017.1
20260831200047 98 194 1.0 3.0 0.00 0.00 0.00 43 1017.2
20260831195548 97 117 1.0 4.0 0.00 0.00 0.00 48 1017.1
20260831195048 96 360 1.0 4.0 0.00 0.00 0.00 47 1017.2
20260831194556 94 338 0.0 3.0 0.00 0.00 0.00 45 1017.2
20260831194046 95 5 1.0 3.0 0.00 0.00 0.00 44 1017.3
20260831193547 95 49 0.0 2.0 0.00 0.00 0.00 49 1017.4
20260831193052 95 301 0.0 2.0 0.00 0.00 0.00 45 1017.5
20260831192545 96 340 1.0 5.0 0.00 0.00 0.00 42 1017.5
20260831192046 96 248 2.0 5.0 0.00 0.00 0.00 42 1017.6
20260831191550 96 12 1.0 5.0 0.00 0.00 0.00 49 1017.7
20260831191045 96 305 1.0 5.0 0.00 0.00 0.00 45 1017.7
20260831190645 97 328 1.0 10.0 0.00 0.00 0.00 42 1017.7
20260831190051 97 300 4.0 10.0 0.00 0.00 0.00 42 1017.7
20260831185548 97 31 1.0 4.0 0.00 0.00 0.00 45 1017.8
20260831185048 97 342 2.0 8.0 0.00 0.00 0.00 42 1017.8
20260831184549 97 296 1.0 10.0 0.00 0.00 0.00 40 1017.9
20260831184048 98 296 5.0 10.0 0.00 0.00 0.00 41 1018.1
20260831183547 97 327 3.0 7.0 0.00 0.00 0.00 40 1018.1
20260831183047 97 119 3.0 7.0 0.00 0.00 0.00 41 1018.1
20260831182546 97 223 2.0 6.0 0.00 0.00 0.00 43 1018.2
20260831182048 96 161 1.0 5.0 0.00 0.00 0.00 46 1018.2
20260831181545 95 314 1.0 9.0 0.00 0.00 0.00 44 1018.3
20260831181043 96 295 3.0 10.0 0.00 0.00 0.00 44 1018.3
20260831180644 96 278 3.0 10.0 0.00 0.00 0.00 42 1018.3
20260831180051 96 257 4.0 10.0 0.00 0.00 0.00 44 1018.4
20260831175550 97 355 5.0 10.0 0.00 0.00 0.00 43 1018.4
20260831175050 97 349 3.0 7.0 0.00 0.00 0.00 44 1018.4
20260831174550 97 269 3.0 7.0 0.00 0.00 0.00 42 1018.4
20260831174052 96 173 2.0 11.0 0.00 0.00 0.00 46 1018.5
20260831173548 95 192 2.0 11.0 0.00 0.00 0.00 44 1018.7
20260831173048 96 241 2.0 10.0 0.00 0.00 0.00 46 1018.8
20260831172548 95 306 3.0 10.0 0.00 0.00 0.00 47 1018.7
20260831172044 96 295 3.0 12.0 0.00 0.00 0.00 47 1018.8
20260831171543 95 294 5.0 12.0 0.00 0.00 0.00 46 1019.0
20260831171041 95 170 3.0 10.0 0.00 0.00 0.00 45 1019.0
20260831170642 95 284 1.0 8.0 0.00 0.00 0.00 51 1019.0
20260831170055 95 262 2.0 11.0 0.00 0.00 0.00 50 1019.2
20260831165551 94 246 2.0 11.0 0.00 0.00 0.00 50 1019.2
20260831165048 94 234 2.0 12.0 0.00 0.00 0.00 52 1019.3
20260831164548 94 200 5.0 12.0 0.00 0.00 0.00 48 1019.3
20260831164048 93 188 2.0 9.0 0.00 0.00 0.00 50 1019.4
20260831163546 93 313 4.0 10.0 0.00 0.00 0.00 49 1019.5
20260831163046 94 254 2.0 15.0 0.00 0.00 0.00 47 1019.5
20260831162548 93 311 5.0 15.0 0.00 0.00 0.00 48 1019.5
20260831162046 93 115 2.0 10.0 0.00 0.00 0.00 50 1019.5
20260831161641 92 266 2.0 9.0 0.00 0.00 0.00 50 1019.5
20260831161043 92 184 3.0 9.0 0.00 0.00 0.00 49 1019.5
20260831160512 92 165 1.0 9.0 0.00 0.00 0.00 53 1019.5
20260831160011 92 214 2.0 8.0 0.00 0.00 0.00 51 1019.5
20260831155507 91 253 4.0 8.0 0.00 0.00 0.00 53 1019.6
20260831155007 90 244 3.0 9.0 0.00 0.00 0.00 54 1019.5
20260831154504 90 213 3.0 9.0 0.00 0.00 0.00 53 1019.6
20260831154001 90 221 2.0 7.0 0.00 0.00 0.00 55 1019.6
20260831153501 89 236 2.0 12.0 0.00 0.00 0.00 57 1019.6
20260831153059 88 169 4.0 12.0 0.00 0.00 0.00 58 1019.7
20260831152558 88 233 2.0 10.0 0.00 0.00 0.00 56 1019.6
20260831152057 87 184 4.0 9.0 0.00 0.00 0.00 57 1019.7
20260831151609 87 171 3.0 9.0 0.00 0.00 0.00 59 1019.6
20260831151055 86 317 3.0 10.0 0.00 0.00 0.00 58 1019.6
20260831150505 86 186 4.0 10.0 0.00 0.00 0.00 59 1019.6